This is the latest recevied weather packets stored in our database for station/object WY7EM. If no packets are shown the sender has not sent any weather packets the latest 10 day(s).
| Time | Temp. | Humidity | Pressure | Rain* | Wind** | Luminosity | Snow |
|---|---|---|---|---|---|---|---|
| 1778194961 | 27.78° C | 16% | 1014 hPa | 0 mm | - | 356 W/m² | - |
| 1778194660 | 28.33° C | 15% | 1014 hPa | 0 mm | - | 630 W/m² | - |
| 1778194357 | 27.22° C | 16% | 1013.9 hPa | 0 mm | - | 551 W/m² | - |
| 1778194053 | 27.78° C | 15% | 1014 hPa | 0 mm | - | 632 W/m² | - |
| 1778193750 | 27.78° C | 15% | 1014.4 hPa | 0 mm | - | 601 W/m² | - |
| 1778193446 | 27.78° C | 16% | 1014 hPa | 0 mm | - | 601 W/m² | - |
| 1778193143 | 27.22° C | 15% | 1014.5 hPa | 0 mm | - | 600 W/m² | - |
| 1778192839 | 26.67° C | 16% | 1014.6 hPa | 0 mm | - | 612 W/m² | - |
| 1778192536 | 26.67° C | 16% | 1014.6 hPa | 0 mm | - | 623 W/m² | - |
| 1778192233 | 27.22° C | 15% | 1014.8 hPa | 0 mm | - | 635 W/m² | - |
| 1778191929 | 27.22° C | 15% | 1014.8 hPa | 0 mm | - | 678 W/m² | - |
| 1778191626 | 27.22° C | 15% | 1015.1 hPa | 0 mm | - | 678 W/m² | - |
| 1778191324 | 26.11° C | 16% | 1015.1 hPa | 0 mm | - | 700 W/m² | - |
| 1778191019 | 26.11° C | 16% | 1015.2 hPa | 0 mm | - | 700 W/m² | - |
| 1778190717 | 26.67° C | 15% | 1015.5 hPa | 0 mm | - | 705 W/m² | - |
| 1778190111 | 26.67° C | 15% | 1015.5 hPa | 0 mm | - | 747 W/m² | - |
| 1778189806 | 26.67° C | 15% | 1015.7 hPa | 0 mm | - | 747 W/m² | - |
| 1778189504 | 26.11° C | 15% | 1015.7 hPa | 0 mm | - | 754 W/m² | - |
| 1778189200 | 26.11° C | 15% | 1015.8 hPa | 0 mm | - | 780 W/m² | - |
| 1778188897 | 26.11° C | 15% | 1016 hPa | 0 mm | - | 780 W/m² | - |
| 1778188594 | 26.67° C | 15% | 1016.1 hPa | 0 mm | - | 784 W/m² | - |
| 1778188289 | 25.56° C | 15% | 1016.1 hPa | 0 mm | - | 792 W/m² | - |
| 1778187988 | 26.67° C | 15% | 1016.2 hPa | 0 mm | - | 802 W/m² | - |
| 1778187684 | 26.11° C | 15% | 1016.5 hPa | 0 mm | - | 812 W/m² | - |
| 1778187381 | 26.11° C | 15% | 1016.4 hPa | 0 mm | - | 820 W/m² | - |
* Rain latest hour (hover to see other rain measurements)
** Current wind speed in m/s (hover to see current wind gust speed)